Zurück zum Katalog

HONGYUN 1

AktivKommunikationSSO
NORAD 43871·PAYLOAD·🇨🇳 China

Gestartet Dec 21, 2018 von Jiuquan Satellite Launch Center

Loading…

Nächste Überflüge (nächste 24 Stunden)

TLE

AktuellSource: Space-Track

Epoche: Sep 14, 2026, 23:18 UTC

1 43871U 18108A   26257.97150250 -.00000030  00000-0  21160-4 0  9990
2 43871  99.7448 278.0583 0011190 196.8350 163.2415 13.51561459381210

Verfolge HONGYUN 1 in Echtzeit mit AllMySat

Download on the App Store